Regional Weather Roundup
Issued by NWS Wilmington, NC

Home | Current Version | Previous Version | Text Only | Print | Product List | Glossary On
Versions: 1 2 3 4 5 6 7 8 9 10 11 12 13 14 15 16 17 18 19 20 21 22 23 24 25 26 27 28 29 30 31 32 33 34 35 36 37 38 39 40 41 42 43 44 45 46 47 48 49 50
000
ASUS42 KILM 010910
RWRILM
RWRILM
REGIONAL HOURLY WEATHER ROUNDUP
NATIONAL WEATHER SERVICE WILMINGTON NC
400 AM EST SUN MAR 01 2015

NOTE: "FAIR" INDICATES FEW OR NO CLOUDS BELOW 12,000 FEET WITH NO
SIGNIFICANT WEATHER AND/OR OBSTRUCTIONS TO VISIBILITY.

...............WFO WILMINGTON COUNTY WARNING AREA...............

......COASTAL NC AND SC COUNTIES......

CITY           SKY/WX    TMP DP  RH WIND       PRES   REMARKS
WILMINGTON     CLOUDY    36  28  73 NE9       30.54F WCI  29
SOUTHPORT      CLOUDY    39  34  81 NE8       30.54S WCI  34
N MYRTLE BEACH CLOUDY    39  29  67 NE9       30.52F WCI  33
MYRTLE BEACH   CLOUDY    39  27  60 N9        30.54F WCI  33

......INLAND NC AND SC COUNTIES.......

CITY           SKY/WX    TMP DP  RH WIND       PRES   REMARKS
LUMBERTON      LGT RAIN  36  28  73 N8        30.56F WCI  30
ELIZABETHTOWN  LGT RAIN  35  28  76 CALM      30.57S
WHITEVILLE     LGT RAIN  36  28  74 N3        30.54F
FLORENCE       CLOUDY    35  30  82 N10       30.54F WCI  27
DARLINGTON     CLOUDY    36  27  69 N10       30.57F WCI  28

....................REST OF NORTH CAROLINA......................

.........EASTERN NC.........

CITY           SKY/WX    TMP DP  RH WIND       PRES   REMARKS
CAPE HATTERAS  PTCLDY    37  36  96 N8        30.56F WCI  31
JACKSONVILLE   CLOUDY    34  25  69 N8        30.57F WCI  27
MOREHEAD CITY  MOCLDY    36  31  82 N10       30.57S WCI  28
KENANSVILLE    CLOUDY    33  24  70 CALM      30.58F
NEW BERN       PTCLDY    33  24  69 N7        30.59F WCI  27
ELIZABETH CITY PTCLDY    31  25  78 N9        30.62F WCI  23

.........CENTRAL NC.........

CITY           SKY/WX    TMP DP  RH WIND       PRES   REMARKS
RALEIGH DURHAM CLOUDY    31  16  54 NE5       30.60F WCI  26
ROCKY MOUNT    CLOUDY    30  18  60 NE8       30.61F WCI  22
ROANOKE RAPIDS NOT AVBL
FAYETTEVILLE   CLOUDY    34  27  75 N8        30.58S WCI  27
HOFFMAN        LGT RAIN  33  29  86 N5        30.61S WCI  28

.........WESTERN NC.........

CITY           SKY/WX    TMP DP  RH WIND       PRES   REMARKS
CHARLOTTE      CLOUDY    32  23  69 NW3       30.59F
GREENSBORO     CLOUDY    30  18  59 E3        30.57F
HICKORY        NOT AVBL
BOONE          NOT AVBL
ASHEVILLE      NOT AVBL

.....................REST OF SOUTH CAROLINA.....................

.........EASTERN SC.........

CITY           SKY/WX    TMP DP  RH WIND       PRES   REMARKS
CHARLESTON     LGT RAIN  40  35  83 NE9       30.49F WCI  34
BEAUFORT MCAS  CLOUDY    41  38  89 NE10      30.47F
HILTON HEAD    CLOUDY    43  39  87 N13       30.46F

.........CENTRAL SC.........

CITY           SKY/WX    TMP DP  RH WIND       PRES   REMARKS
COLUMBIA       LGT RAIN  36  31  82 NE10      30.54F WCI  28
ORANGEBURG     LGT RAIN  38  29  70 NE12      30.51F WCI  30
SUMTER SHAW    LGT RAIN  35  29  78 N10       30.52F WCI  28

.........WESTERN SC.........

CITY           SKY/WX    TMP DP  RH WIND       PRES   REMARKS
GREENVILLE     NOT AVBL
ROCK HILL      MIX PCPN  32  26  78 NE6       30.58F WCI  26
ANDERSON       CLOUDY    34  30  85 NE9       30.55F WCI  27
CLEMSON        NOT AVBL
GREENWOOD      LGT RAIN  33  30  88 NE9       30.57F FOG     WCI  25


...................COASTAL AND OFFSHORE REPORTS..................

................LOCAL PIERS AND NC RESERVE................


STATION/POSITION TIME  SKY/WX   TEMP    WIND        PRES    VSBY
                                AIR SEA DIR/SP/G
                 (UTC)          (F)     (DEG/KT/KT) (MB)    (MI)
JOHNY MRCER PIER 0900            38 47   10/  8/ 10 1033.7F
NC RESRV MASNBRO 0800            40      40/ 11     1034.0S
OCEAN CREST PIER 0900            40 46   10/  7/ 10 1033.1F
SPRINGMAID  PIER 0900            39 45  350/ 10/ 12 1033.5F


................COASTAL AND OFFSHORE BUOYS................


STATION/POSITION TIME  SKY/WX   TEMP    WIND        PRES    VSBY
                                AIR SEA DIR/SP/G
                 (UTC)          (F)     (DEG/KT/KT) (MB)    (MI)
DIMNDSHOAL 41025 NOT AVBL
CAPE LOOKOUT     0800            39      40/ 17/ 19 1034.7F
ONSLOW BAY 41036 NOT AVBL
5 WRITEBCH 41038 NOT AVBL
MASONBORO  41110 0900               45                N/A
WVE H/P(F/S)=  5/ 6 WND WVE H/P(F/S)=  5/ 6

WILM HARBR 41108 0900               47                N/A
WVE H/P(F/S)=  5/ 7 WND WVE H/P(F/S)=  5/ 7

27WRITEBCH 41037 NOT AVBL
FRYING PAN 41013 0900            55 61   50/ 17/ 21 1032.4F
WVE H/P(F/S)=  8/ 7 WND WVE H/P(F/S)=  7/ 7 SWL H/P/D(F/S/D)=  2/ 90/ 9

SUNST NRSH 41024 0800            39      30/ 12/ 12   N/A
CAPRS NRSH 41029 NOT AVBL
EDISTO     41004 0900            57 66   30/ 23/ 27 1029.8F
WVE H/P(F/S)= 10/ 8 WND WVE H/P(F/S)=  8/ 8 SWL H/P/D(F/S/D)=  5/11



..........OFFSHORE BUOYS BEYOND 100 NM OFFSHORE...........
.....IN A TRIANGLE---HAT TO BERMUDA TO BAHAMAS TO HAT.....


STATION/POSITION TIME  SKY/WX   TEMP    WIND        PRES    VSBY
                                AIR SEA DIR/SP/G
                 (UTC)          (F)     (DEG/KT/KT) (MB)    (MI)
150E HAT   41001 NOT AVBL
W BERMUDA  41048 0813            65 68   50/ 23/ 27 1030.2F
WVE H/P(F/S)= 11/ 9 WND WVE H/P(F/S)=  8/ 6 SWL H/P/D(F/S/D)=  8/ 30/ 9

ATLANTIC S 41049 0804            73 74   70/  8/ 10 1025.7R
WVE H/P(F/S)=  7/10 WND WVE H/P(F/S)=  2/ 4 SWL H/P/D(F/S/D)=  7/ 10/10

E BAHAMAS  41046 0827            76 77   70/ 16/ 19 1023.1R
WVE H/P(F/S)=  6/ 9 WND WVE H/P(F/S)=  5/ 6 SWL H/P/D(F/S/D)=  5/120/ 9

NE BAHAMAS 41047 0753            71 74   40/ 14/ 16 1026.4
WVE H/P(F/S)=  7/ 8 WND WVE H/P(F/S)=  3/ 6 SWL H/P/D(F/S/D)=  7/350/ 8

120E CANVRL41010 0900            71 74   90/ 21/ 25 1027.0S
WVE H/P(F/S)= 10/ 9 WND WVE H/P(F/S)=  7/ 7 SWL H/P/D(F/S/D)=  7/ 50/ 9


END



USA.gov is the U.S. government's official web portal to all federal, state and local government web resources and services.